This is the latest recevied weather packets stored in our database for station/object K5NWZ. If no packets are shown the sender has not sent any weather packets the latest 10 day(s).
| Time | Temp. | Humidity | Pressure | Rain* | Wind** | Luminosity | Snow |
|---|---|---|---|---|---|---|---|
| 1788035534 | 33.89° C | 27% | 1024.9 hPa | 0 mm | - | 781 W/m² | - |
| 1788035229 | 33.89° C | 27% | 1025.1 hPa | 0 mm | - | 755 W/m² | - |
| 1788034924 | 33.89° C | 26% | 1025.3 hPa | 0 mm | - | 535 W/m² | - |
| 1788034620 | 33.89° C | 26% | 1024.9 hPa | 0 mm | - | 661 W/m² | - |
| 1788034311 | 33.33° C | 26% | 1025.1 hPa | 0 mm | - | 645 W/m² | - |
| 1788034010 | 32.78° C | 28% | 1024.9 hPa | 0 mm | - | 555 W/m² | - |
| 1788033705 | 32.22° C | 27% | 1024.9 hPa | 0 mm | - | 557 W/m² | - |
| 1788033404 | 32.78° C | 27% | 1025.2 hPa | 0 mm | - | 577 W/m² | - |
| 1788033099 | 32.78° C | 29% | 1025.3 hPa | 0 mm | - | 714 W/m² | - |
| 1788032794 | 31.67° C | 27% | 1025.3 hPa | 0 mm | - | 629 W/m² | - |
| 1788032488 | 31.67° C | 28% | 1025.2 hPa | 0 mm | - | 342 W/m² | - |
| 1788032184 | 31.67° C | 29% | 1025.2 hPa | 0 mm | - | 248 W/m² | - |
| 1788031880 | 31.67° C | 29% | 1025.3 hPa | 0 mm | - | 240 W/m² | - |
| 1788031580 | 31.67° C | 28% | 1025.3 hPa | 0 mm | - | 233 W/m² | - |
| 1788031273 | 31.67° C | 29% | 1025.4 hPa | 0 mm | - | 211 W/m² | - |
| 1788030972 | 31.67° C | 28% | 1025.6 hPa | 0 mm | - | 227 W/m² | - |
| 1788030667 | 31.67° C | 27% | 1025.5 hPa | 0 mm | - | 269 W/m² | - |
| 1788030362 | 31.67° C | 28% | 1025.9 hPa | 0 mm | - | 455 W/m² | - |
| 1788030057 | 32.22° C | 29% | 1025.9 hPa | 0 mm | - | 615 W/m² | - |
| 1788029752 | 32.22° C | 29% | 1026 hPa | 0 mm | - | 258 W/m² | - |
| 1788029447 | 32.22° C | 29% | 1026.1 hPa | 0 mm | - | 234 W/m² | - |
| 1788029145 | 32.22° C | 29% | 1026 hPa | 0 mm | - | 262 W/m² | - |
| 1788028840 | 32.22° C | 28% | 1026.2 hPa | 0 mm | - | 265 W/m² | - |
| 1788028540 | 32.22° C | 28% | 1026.3 hPa | 0 mm | - | 385 W/m² | - |
| 1788028235 | 32.22° C | 28% | 1026.2 hPa | 0 mm | - | 329 W/m² | - |
* Rain latest hour (hover to see other rain measurements)
** Current wind speed in m/s (hover to see current wind gust speed)